Time,TemperatureF,DewpointF,PressureIn,WindDirection,WindDirectionDegrees,WindSpeedMPH,WindSpeedGustMPH,Humidity,HourlyPrecipIn,Conditions,Clouds,dailyrainin,SoftwareType,DateUTC
2013-02-12 00:00:00,40.8,38.1,28.70,SSE,151,0.0,0.0,90,0.00,,---,0.00,VWS V14.01,2013-02-12 08:00:00,
2013-02-12 00:05:00,40.8,38.1,28.70,SSE,151,0.0,0.0,90,0.00,,---,0.00,VWS V14.01,2013-02-12 08:05:00,
2013-02-12 00:10:00,40.6,37.9,28.70,SSE,151,0.0,0.0,90,0.00,,---,0.00,VWS V14.01,2013-02-12 08:10:00,
2013-02-12 00:15:00,40.3,37.3,28.70,SSE,151,0.0,0.0,89,0.00,,---,0.00,VWS V14.01,2013-02-12 08:15:00,
2013-02-12 00:20:00,40.3,37.3,28.70,SSE,151,0.0,0.0,89,0.00,,---,0.00,VWS V14.01,2013-02-12 08:20:00,
2013-02-12 00:25:00,40.3,37.6,28.70,SSE,151,0.0,0.0,90,0.00,,---,0.00,VWS V14.01,2013-02-12 08:25:00,
2013-02-12 00:30:00,40.3,37.6,28.70,SSE,151,0.0,0.0,90,0.00,,---,0.00,VWS V14.01,2013-02-12 08:30:00,
2013-02-12 00:35:00,40.1,37.1,28.70,SSE,151,0.0,0.0,89,0.00,,---,0.00,VWS V14.01,2013-02-12 08:35:00,
2013-02-12 00:40:00,39.9,37.2,28.70,SSE,151,0.0,0.0,90,0.00,,---,0.00,VWS V14.01,2013-02-12 08:40:00,
2013-02-12 00:45:00,39.9,37.2,28.70,SSE,151,0.0,0.0,90,0.00,,---,0.00,VWS V14.01,2013-02-12 08:45:00,
2013-02-12 00:50:00,39.9,37.2,28.70,SSE,151,0.0,0.0,90,0.00,,---,0.00,VWS V14.01,2013-02-12 08:50:00,
2013-02-12 00:55:00,39.9,37.2,28.70,SSE,151,0.0,0.0,90,0.00,,---,0.00,VWS V14.01,2013-02-12 08:55:00,
2013-02-12 01:00:00,39.9,37.2,28.70,SSE,151,0.0,0.0,90,0.00,,---,0.00,VWS V14.01,2013-02-12 09:00:00,
2013-02-12 01:05:00,40.1,37.4,28.70,SSE,151,0.0,0.0,90,0.00,,---,0.00,VWS V14.01,2013-02-12 09:05:00,
2013-02-12 01:10:00,40.1,37.4,28.70,SSE,151,0.0,0.0,90,0.00,,---,0.00,VWS V14.01,2013-02-12 09:10:00,
2013-02-12 01:15:00,40.1,37.4,28.67,SSE,151,0.0,0.0,90,0.00,,---,0.00,VWS V14.01,2013-02-12 09:15:00,
2013-02-12 01:20:00,39.9,37.2,28.67,SSE,151,0.0,0.0,90,0.00,,---,0.00,VWS V14.01,2013-02-12 09:20:00,
2013-02-12 01:25:00,39.9,37.5,28.67,SSE,151,0.0,0.0,91,0.00,,---,0.00,VWS V14.01,2013-02-12 09:25:00,
2013-02-12 01:30:00,40.1,37.7,28.67,SSE,151,0.0,0.0,91,0.00,,---,0.00,VWS V14.01,2013-02-12 09:30:00,
2013-02-12 01:35:00,40.3,37.9,28.67,SSE,151,0.0,0.0,91,0.00,,---,0.00,VWS V14.01,2013-02-12 09:35:00,
2013-02-12 01:40:00,40.3,37.9,28.67,SSE,151,0.0,0.0,91,0.00,,---,0.00,VWS V14.01,2013-02-12 09:40:00,
2013-02-12 01:45:00,40.3,37.9,28.67,SSE,151,0.0,0.0,91,0.00,,---,0.00,VWS V14.01,2013-02-12 09:45:00,
2013-02-12 01:50:00,40.1,37.7,28.67,SSE,151,0.0,0.0,91,0.00,,---,0.00,VWS V14.01,2013-02-12 09:50:00,
2013-02-12 01:55:00,40.1,37.7,28.67,SSE,151,0.0,0.0,91,0.00,,---,0.00,VWS V14.01,2013-02-12 09:55:00,
2013-02-12 02:00:00,40.1,37.7,28.70,SSE,151,0.0,0.0,91,0.00,,---,0.00,VWS V14.01,2013-02-12 10:00:00,
2013-02-12 02:05:00,40.1,37.7,28.70,SSE,151,0.0,0.0,91,0.00,,---,0.00,VWS V14.01,2013-02-12 10:05:00,
2013-02-12 02:10:00,40.1,37.7,28.70,SSE,151,0.0,0.0,91,0.00,,---,0.00,VWS V14.01,2013-02-12 10:10:00,
2013-02-12 02:15:00,39.9,37.5,28.67,SSE,151,0.0,0.0,91,0.00,,---,0.00,VWS V14.01,2013-02-12 10:15:00,
2013-02-12 02:20:00,39.9,37.5,28.67,SSE,151,0.0,0.0,91,0.00,,---,0.00,VWS V14.01,2013-02-12 10:20:00,
2013-02-12 02:25:00,39.9,37.5,28.67,SSE,151,0.0,0.0,91,0.00,,---,0.00,VWS V14.01,2013-02-12 10:25:00,
2013-02-12 02:30:00,39.9,37.5,28.67,SSE,151,0.0,0.0,91,0.00,,---,0.00,VWS V14.01,2013-02-12 10:30:00,
2013-02-12 02:35:00,39.9,37.5,28.67,SSE,151,0.0,0.0,91,0.00,,---,0.00,VWS V14.01,2013-02-12 10:35:00,
2013-02-12 02:40:00,39.7,37.3,28.67,SSE,151,0.0,0.0,91,0.00,,---,0.00,VWS V14.01,2013-02-12 10:40:00,
2013-02-12 02:45:00,39.7,37.3,28.67,SSE,151,0.0,0.0,91,0.00,,---,0.00,VWS V14.01,2013-02-12 10:45:00,
2013-02-12 02:50:00,39.6,37.2,28.67,SSE,151,0.0,0.0,91,0.00,,---,0.00,VWS V14.01,2013-02-12 10:50:00,
2013-02-12 02:55:00,39.6,37.2,28.67,SSE,151,0.0,0.0,91,0.00,,---,0.00,VWS V14.01,2013-02-12 10:55:00,
2013-02-12 03:00:00,39.4,37.0,28.70,SSE,151,0.0,0.0,91,0.00,,---,0.00,VWS V14.01,2013-02-12 11:00:00,
2013-02-12 03:05:00,39.4,37.0,28.70,SSE,151,0.0,0.0,91,0.00,,---,0.00,VWS V14.01,2013-02-12 11:05:00,
2013-02-12 03:10:00,39.6,37.2,28.70,SSE,151,0.0,0.0,91,0.00,,---,0.00,VWS V14.01,2013-02-12 11:10:00,
2013-02-12 03:15:00,39.6,37.2,28.67,SSE,151,0.0,0.0,91,0.00,,---,0.00,VWS V14.01,2013-02-12 11:15:00,
2013-02-12 03:20:00,39.6,37.2,28.67,SSE,151,0.0,0.0,91,0.00,,---,0.00,VWS V14.01,2013-02-12 11:20:00,
2013-02-12 03:25:00,39.4,37.0,28.67,SSE,151,0.0,0.0,91,0.00,,---,0.00,VWS V14.01,2013-02-12 11:25:00,
2013-02-12 03:30:00,39.4,37.0,28.67,SSE,151,0.0,0.0,91,0.00,,---,0.00,VWS V14.01,2013-02-12 11:30:00,
2013-02-12 03:35:00,39.0,36.6,28.67,SSE,151,0.0,0.0,91,0.00,,---,0.00,VWS V14.01,2013-02-12 11:35:00,
2013-02-12 03:40:00,39.0,36.6,28.67,SSE,151,0.0,0.0,91,0.00,,---,0.00,VWS V14.01,2013-02-12 11:40:00,
2013-02-12 03:45:00,39.0,36.6,28.67,SSE,151,0.0,0.0,91,0.00,,---,0.00,VWS V14.01,2013-02-12 11:45:00,
2013-02-12 03:50:00,39.0,36.6,28.67,SSE,151,0.0,0.0,91,0.00,,---,0.00,VWS V14.01,2013-02-12 11:50:00,
2013-02-12 03:55:00,38.8,36.4,28.67,SSE,151,0.0,0.0,91,0.00,,---,0.00,VWS V14.01,2013-02-12 11:55:00,
2013-02-12 04:00:00,38.8,36.4,28.70,SSE,151,0.0,0.0,91,0.00,,---,0.00,VWS V14.01,2013-02-12 12:00:00,
2013-02-12 04:05:00,38.8,36.4,28.70,SSE,151,0.0,0.0,91,0.00,,---,0.00,VWS V14.01,2013-02-12 12:05:00,
2013-02-12 04:10:00,38.8,36.7,28.70,SSE,151,0.0,0.0,92,0.00,,---,0.00,VWS V14.01,2013-02-12 12:10:00,
2013-02-12 04:15:00,38.8,36.7,28.70,SSE,151,0.0,0.0,92,0.00,,---,0.00,VWS V14.01,2013-02-12 12:15:00,
2013-02-12 04:20:00,38.8,36.7,28.70,SSE,151,0.0,0.0,92,0.00,,---,0.00,VWS V14.01,2013-02-12 12:20:00,
2013-02-12 04:25:00,38.7,36.5,28.70,SSE,151,0.0,0.0,92,0.00,,---,0.00,VWS V14.01,2013-02-12 12:25:00,
2013-02-12 04:30:00,38.7,36.5,28.70,SSE,151,0.0,0.0,92,0.00,,---,0.00,VWS V14.01,2013-02-12 12:30:00,
2013-02-12 04:35:00,38.7,36.5,28.70,SSE,151,0.0,0.0,92,0.00,,---,0.00,VWS V14.01,2013-02-12 12:35:00,
2013-02-12 04:40:00,38.8,36.7,28.70,SSE,151,0.0,0.0,92,0.00,,---,0.00,VWS V14.01,2013-02-12 12:40:00,
2013-02-12 04:45:00,38.8,36.7,28.70,SSE,151,0.0,0.0,92,0.00,,---,0.00,VWS V14.01,2013-02-12 12:45:00,
2013-02-12 04:50:00,38.8,36.7,28.70,SSE,151,0.0,0.0,92,0.00,,---,0.00,VWS V14.01,2013-02-12 12:50:00,
2013-02-12 04:55:00,38.8,36.7,28.70,SSE,151,0.0,0.0,92,0.00,,---,0.00,VWS V14.01,2013-02-12 12:55:00,
2013-02-12 05:00:00,38.8,36.7,28.70,SSE,151,0.0,0.0,92,0.00,,---,0.00,VWS V14.01,2013-02-12 13:00:00,
2013-02-12 05:05:00,38.8,36.7,28.70,SSE,151,0.0,0.0,92,0.00,,---,0.00,VWS V14.01,2013-02-12 13:05:00,
2013-02-12 05:10:00,38.8,36.7,28.70,SSE,151,0.0,0.0,92,0.00,,---,0.00,VWS V14.01,2013-02-12 13:10:00,
2013-02-12 05:15:00,38.8,36.7,28.70,SSE,151,0.0,0.0,92,0.00,,---,0.00,VWS V14.01,2013-02-12 13:15:00,
2013-02-12 05:20:00,38.8,36.7,28.70,SSE,151,0.0,0.0,92,0.00,,---,0.00,VWS V14.01,2013-02-12 13:20:00,
2013-02-12 05:25:00,38.8,36.7,28.70,SSE,151,0.0,0.0,92,0.00,,---,0.00,VWS V14.01,2013-02-12 13:25:00,
2013-02-12 05:30:00,38.7,36.5,28.70,SSE,151,0.0,0.0,92,0.00,,---,0.00,VWS V14.01,2013-02-12 13:30:00,
2013-02-12 05:35:00,38.8,36.7,28.70,SSE,151,0.0,0.0,92,0.00,,---,0.00,VWS V14.01,2013-02-12 13:35:00,
2013-02-12 05:40:00,38.7,36.5,28.70,SSE,151,0.0,0.0,92,0.00,,---,0.00,VWS V14.01,2013-02-12 13:40:00,
2013-02-12 05:45:00,38.8,36.7,28.70,SSE,151,0.0,0.0,92,0.00,,---,0.00,VWS V14.01,2013-02-12 13:45:00,
2013-02-12 05:50:00,38.8,36.7,28.70,SSE,151,0.0,0.0,92,0.00,,---,0.00,VWS V14.01,2013-02-12 13:50:00,
2013-02-12 05:55:00,38.7,36.5,28.70,SSE,151,0.0,0.0,92,0.00,,---,0.00,VWS V14.01,2013-02-12 13:55:00,
2013-02-12 06:00:00,38.7,36.5,28.70,SSE,151,0.0,0.0,92,0.00,,---,0.00,VWS V14.01,2013-02-12 14:00:00,
2013-02-12 06:05:00,38.7,36.5,28.70,SSE,151,0.0,0.0,92,0.00,,---,0.00,VWS V14.01,2013-02-12 14:05:00,
2013-02-12 06:10:00,38.7,36.5,28.70,SSE,151,0.0,0.0,92,0.00,,---,0.00,VWS V14.01,2013-02-12 14:10:00,
2013-02-12 06:15:00,38.7,36.5,28.70,SSE,151,0.0,0.0,92,0.00,,---,0.00,VWS V14.01,2013-02-12 14:15:00,
2013-02-12 06:20:00,38.8,36.7,28.70,SSE,151,0.0,0.0,92,0.00,,---,0.00,VWS V14.01,2013-02-12 14:20:00,
2013-02-12 06:25:00,38.7,36.5,28.70,SSE,151,0.0,0.0,92,0.00,,---,0.00,VWS V14.01,2013-02-12 14:25:00,
2013-02-12 06:30:00,38.7,36.5,28.70,SSE,151,0.0,0.0,92,0.00,,---,0.00,VWS V14.01,2013-02-12 14:30:00,
2013-02-12 06:35:00,38.7,36.5,28.70,SSE,151,0.0,0.0,92,0.00,,---,0.00,VWS V14.01,2013-02-12 14:35:00,
2013-02-12 06:40:00,38.5,36.4,28.70,SSE,151,0.0,0.0,92,0.00,,---,0.00,VWS V14.01,2013-02-12 14:40:00,
2013-02-12 06:45:00,38.5,36.4,28.70,SSE,151,0.0,0.0,92,0.00,,---,0.00,VWS V14.01,2013-02-12 14:45:00,
2013-02-12 06:50:00,38.5,36.6,28.70,SSE,151,0.0,0.0,93,0.00,,---,0.00,VWS V14.01,2013-02-12 14:50:00,
2013-02-12 06:55:00,38.5,36.4,28.70,SSE,151,0.0,0.0,92,0.00,,---,0.00,VWS V14.01,2013-02-12 14:55:00,
2013-02-12 07:00:00,38.5,36.6,28.70,SSE,151,0.0,0.0,93,0.00,,---,0.00,VWS V14.01,2013-02-12 15:00:00,
2013-02-12 07:05:00,38.7,36.8,28.70,SSE,151,0.0,0.0,93,0.00,,---,0.00,VWS V14.01,2013-02-12 15:05:00,
2013-02-12 07:10:00,38.7,36.8,28.70,SSE,151,0.0,0.0,93,0.00,,---,0.00,VWS V14.01,2013-02-12 15:10:00,
2013-02-12 07:15:00,38.7,36.8,28.70,SSE,151,0.0,0.0,93,0.00,,---,0.00,VWS V14.01,2013-02-12 15:15:00,
2013-02-12 07:20:00,38.7,36.8,28.70,SSE,151,0.0,0.0,93,0.00,,---,0.00,VWS V14.01,2013-02-12 15:20:00,
2013-02-12 07:25:00,38.8,37.0,28.70,SSE,151,0.0,0.0,93,0.00,,---,0.00,VWS V14.01,2013-02-12 15:25:00,
2013-02-12 07:30:00,38.7,36.8,28.70,SSE,151,0.0,0.0,93,0.00,,---,0.00,VWS V14.01,2013-02-12 15:30:00,
2013-02-12 07:35:00,38.8,37.0,28.70,SSE,151,0.0,0.0,93,0.00,,---,0.00,VWS V14.01,2013-02-12 15:35:00,
2013-02-12 07:40:00,38.8,37.0,28.70,SSE,151,0.0,0.0,93,0.00,,---,0.00,VWS V14.01,2013-02-12 15:40:00,
2013-02-12 07:45:00,38.8,37.0,28.70,SSE,151,0.0,0.0,93,0.00,,---,0.00,VWS V14.01,2013-02-12 15:45:00,
2013-02-12 07:50:00,38.8,37.0,28.70,SSE,151,0.0,0.0,93,0.00,,---,0.00,VWS V14.01,2013-02-12 15:50:00,
2013-02-12 07:55:00,39.2,37.3,28.70,SSE,151,0.0,0.0,93,0.00,,---,0.00,VWS V14.01,2013-02-12 15:55:00,
2013-02-12 08:00:00,39.4,37.5,28.73,SSE,151,0.0,0.0,93,0.00,,---,0.00,VWS V14.01,2013-02-12 16:00:00,
2013-02-12 08:05:00,39.2,37.3,28.73,SSE,151,0.0,0.0,93,0.00,,---,0.00,VWS V14.01,2013-02-12 16:05:00,
2013-02-12 08:10:00,39.2,37.3,28.73,SSE,151,0.0,0.0,93,0.00,,---,0.00,VWS V14.01,2013-02-12 16:10:00,
2013-02-12 08:15:00,39.4,37.5,28.73,SSE,151,0.0,0.0,93,0.00,,---,0.00,VWS V14.01,2013-02-12 16:15:00,
2013-02-12 08:20:00,39.2,37.6,28.73,SSE,151,0.0,0.0,94,0.00,,---,0.00,VWS V14.01,2013-02-12 16:20:00,
2013-02-12 08:25:00,39.4,37.8,28.73,SSE,151,0.0,0.0,94,0.00,,---,0.00,VWS V14.01,2013-02-12 16:25:00,
2013-02-12 08:30:00,39.7,38.2,28.73,SSE,151,0.0,0.0,94,0.00,,---,0.00,VWS V14.01,2013-02-12 16:30:00,
2013-02-12 08:35:00,40.1,38.5,28.73,SSE,151,0.0,0.0,94,0.00,,---,0.00,VWS V14.01,2013-02-12 16:35:00,
2013-02-12 08:40:00,40.5,39.1,28.73,SSE,151,0.0,0.0,95,0.00,,---,0.00,VWS V14.01,2013-02-12 16:40:00,
2013-02-12 08:45:00,40.5,39.1,28.73,SSE,151,0.0,0.0,95,0.00,,---,0.00,VWS V14.01,2013-02-12 16:45:00,
2013-02-12 08:50:00,40.5,39.1,28.73,SSE,151,0.0,0.0,95,0.00,,---,0.00,VWS V14.01,2013-02-12 16:50:00,
2013-02-12 08:55:00,40.8,39.5,28.73,SSE,151,0.0,0.0,95,0.00,,---,0.00,VWS V14.01,2013-02-12 16:55:00,
2013-02-12 09:00:00,40.8,39.5,28.73,SSE,151,0.0,0.0,95,0.00,,---,0.00,VWS V14.01,2013-02-12 17:00:00,
2013-02-12 09:05:00,41.0,39.7,28.73,SSE,151,0.0,0.0,95,0.00,,---,0.00,VWS V14.01,2013-02-12 17:05:00,
2013-02-12 09:10:00,41.0,39.7,28.73,SSE,151,0.0,0.0,95,0.00,,---,0.00,VWS V14.01,2013-02-12 17:10:00,
2013-02-12 09:15:00,41.2,39.9,28.73,SSE,151,0.0,0.0,95,0.04,,---,0.04,VWS V14.01,2013-02-12 17:15:00,
2013-02-12 09:20:00,41.5,40.2,28.73,SSE,151,0.0,0.0,95,0.04,,---,0.04,VWS V14.01,2013-02-12 17:20:00,
2013-02-12 09:25:00,41.5,40.2,28.73,SSE,151,0.0,0.0,95,0.04,,---,0.04,VWS V14.01,2013-02-12 17:25:00,
2013-02-12 09:30:00,41.7,40.4,28.73,SSE,151,0.0,0.0,95,0.04,,---,0.04,VWS V14.01,2013-02-12 17:30:00,
2013-02-12 09:35:00,42.4,41.4,28.73,SSE,151,0.0,0.0,96,0.04,,---,0.04,VWS V14.01,2013-02-12 17:35:00,
2013-02-12 09:40:00,42.6,41.6,28.73,SSE,151,0.0,0.0,96,0.04,,---,0.04,VWS V14.01,2013-02-12 17:40:00,
2013-02-12 09:45:00,43.2,41.8,28.73,SSE,151,0.0,0.0,95,0.04,,---,0.04,VWS V14.01,2013-02-12 17:45:00,
2013-02-12 09:50:00,43.3,42.0,28.73,SSE,151,0.0,0.0,95,0.04,,---,0.04,VWS V14.01,2013-02-12 17:50:00,
2013-02-12 09:55:00,43.5,42.2,28.73,SSE,151,0.0,0.0,95,0.04,,---,0.04,VWS V14.01,2013-02-12 17:55:00,
2013-02-12 10:00:00,43.5,42.2,28.73,SSE,151,0.0,0.0,95,0.04,,---,0.04,VWS V14.01,2013-02-12 18:00:00,
2013-02-12 10:05:00,43.7,42.4,28.73,SSE,151,0.0,0.0,95,0.04,,---,0.04,VWS V14.01,2013-02-12 18:05:00,
2013-02-12 10:10:00,43.7,42.1,28.73,SSE,151,0.0,0.0,94,0.04,,---,0.04,VWS V14.01,2013-02-12 18:10:00,
2013-02-12 10:15:00,43.7,42.1,28.73,SSE,151,0.0,0.0,94,0.04,,---,0.04,VWS V14.01,2013-02-12 18:15:00,
2013-02-12 10:20:00,44.1,42.5,28.73,SSE,151,0.0,0.0,94,0.00,,---,0.04,VWS V14.01,2013-02-12 18:20:00,
2013-02-12 10:25:00,44.2,42.6,28.73,SSE,151,0.0,0.0,94,0.00,,---,0.04,VWS V14.01,2013-02-12 18:25:00,
2013-02-12 10:30:00,44.2,42.6,28.73,SSE,151,0.0,0.0,94,0.00,,---,0.04,VWS V14.01,2013-02-12 18:30:00,
2013-02-12 10:35:00,44.6,42.7,28.73,SSE,151,0.0,0.0,93,0.00,,---,0.04,VWS V14.01,2013-02-12 18:35:00,
2013-02-12 10:40:00,44.6,42.7,28.73,SSE,151,0.0,0.0,93,0.00,,---,0.04,VWS V14.01,2013-02-12 18:40:00,
2013-02-12 10:45:00,44.4,42.5,28.73,SSE,151,0.0,0.0,93,0.00,,---,0.04,VWS V14.01,2013-02-12 18:45:00,
2013-02-12 10:50:00,44.6,42.7,28.73,SSE,151,0.0,0.0,93,0.00,,---,0.04,VWS V14.01,2013-02-12 18:50:00,
2013-02-12 10:55:00,44.4,42.5,28.73,SSE,151,0.0,0.0,93,0.00,,---,0.04,VWS V14.01,2013-02-12 18:55:00,
2013-02-12 11:00:00,44.6,42.7,28.73,SSE,151,0.0,0.0,93,0.00,,---,0.04,VWS V14.01,2013-02-12 19:00:00,
2013-02-12 11:05:00,44.6,42.7,28.73,SSE,151,0.0,0.0,93,0.00,,---,0.04,VWS V14.01,2013-02-12 19:05:00,
2013-02-12 11:10:00,44.4,42.5,28.73,SSE,151,0.0,0.0,93,0.00,,---,0.04,VWS V14.01,2013-02-12 19:10:00,
2013-02-12 11:15:00,44.4,42.5,28.73,SSE,151,0.0,0.0,93,0.00,,---,0.04,VWS V14.01,2013-02-12 19:15:00,
2013-02-12 11:20:00,45.3,43.1,28.73,SSE,151,0.0,0.0,92,0.00,,---,0.04,VWS V14.01,2013-02-12 19:20:00,
2013-02-12 11:25:00,45.7,43.8,28.73,SSE,151,0.0,0.0,93,0.00,,---,0.04,VWS V14.01,2013-02-12 19:25:00,
2013-02-12 11:30:00,45.3,42.3,28.73,SSE,151,0.0,0.0,89,0.00,,---,0.04,VWS V14.01,2013-02-12 19:30:00,
2013-02-12 11:35:00,45.9,43.1,28.73,SSE,151,0.0,0.0,90,0.00,,---,0.04,VWS V14.01,2013-02-12 19:35:00,
2013-02-12 11:40:00,46.4,43.6,28.73,SSE,151,0.0,0.0,90,0.00,,---,0.04,VWS V14.01,2013-02-12 19:40:00,
2013-02-12 11:45:00,46.9,44.2,28.73,SSE,152,0.0,0.0,90,0.00,,---,0.04,VWS V14.01,2013-02-12 19:45:00,
2013-02-12 11:50:00,46.9,43.6,28.73,SSE,151,0.0,0.0,88,0.00,,---,0.04,VWS V14.01,2013-02-12 19:50:00,
2013-02-12 11:55:00,46.9,43.0,28.73,SSE,151,0.0,0.0,86,0.00,,---,0.04,VWS V14.01,2013-02-12 19:55:00,
2013-02-12 12:00:00,47.3,43.6,28.73,South,189,0.0,0.0,87,0.00,,---,0.04,VWS V14.01,2013-02-12 20:00:00,
2013-02-12 12:05:00,48.0,44.3,28.73,SSE,154,0.0,0.0,87,0.00,,---,0.04,VWS V14.01,2013-02-12 20:05:00,
2013-02-12 12:10:00,48.4,44.7,28.73,SSE,154,0.0,0.0,87,0.00,,---,0.04,VWS V14.01,2013-02-12 20:10:00,
2013-02-12 12:15:00,48.0,43.7,28.73,South,186,0.0,0.0,85,0.00,,---,0.04,VWS V14.01,2013-02-12 20:15:00,
2013-02-12 12:20:00,48.0,43.7,28.73,SSE,162,0.0,0.0,85,0.00,,---,0.04,VWS V14.01,2013-02-12 20:20:00,
2013-02-12 12:25:00,48.2,43.9,28.73,SE,129,0.0,3.1,85,0.00,,---,0.04,VWS V14.01,2013-02-12 20:25:00,
2013-02-12 12:30:00,48.2,43.9,28.73,South,185,0.0,0.0,85,0.00,,---,0.04,VWS V14.01,2013-02-12 20:30:00,
2013-02-12 12:35:00,48.6,44.3,28.73,South,185,0.0,0.0,85,0.00,,---,0.04,VWS V14.01,2013-02-12 20:35:00,
2013-02-12 12:40:00,48.7,44.4,28.73,SW,224,2.7,2.7,85,0.00,,---,0.04,VWS V14.01,2013-02-12 20:40:00,
2013-02-12 12:45:00,48.7,43.8,28.73,SSW,197,2.7,2.7,83,0.00,,---,0.04,VWS V14.01,2013-02-12 20:45:00,
2013-02-12 12:50:00,48.7,43.8,28.73,SSW,197,0.0,0.0,83,0.00,,---,0.04,VWS V14.01,2013-02-12 20:50:00,
2013-02-12 12:55:00,49.3,44.7,28.73,SSW,196,0.0,0.0,84,0.00,,---,0.04,VWS V14.01,2013-02-12 20:55:00,
2013-02-12 13:00:00,49.3,44.7,28.73,East,89,0.0,0.0,84,0.00,,---,0.04,VWS V14.01,2013-02-12 21:00:00,
2013-02-12 13:05:00,49.6,44.7,28.73,East,97,0.0,0.0,83,0.00,,---,0.04,VWS V14.01,2013-02-12 21:05:00,
2013-02-12 13:10:00,49.6,44.1,28.73,ENE,65,0.0,0.0,81,0.00,,---,0.04,VWS V14.01,2013-02-12 21:10:00,
2013-02-12 13:15:00,49.5,43.6,28.73,SSE,153,0.0,0.0,80,0.00,,---,0.04,VWS V14.01,2013-02-12 21:15:00,
2013-02-12 13:20:00,49.5,43.6,28.73,NNE,12,0.0,0.0,80,0.00,,---,0.04,VWS V14.01,2013-02-12 21:20:00,
2013-02-12 13:25:00,49.5,43.6,28.73,ENE,65,4.9,4.9,80,0.00,,---,0.04,VWS V14.01,2013-02-12 21:25:00,
2013-02-12 13:30:00,49.5,43.6,28.73,East,93,0.0,0.0,80,0.00,,---,0.04,VWS V14.01,2013-02-12 21:30:00,
2013-02-12 13:35:00,49.5,43.9,28.73,ESE,109,0.0,0.0,81,0.00,,---,0.04,VWS V14.01,2013-02-12 21:35:00,
2013-02-12 13:40:00,49.5,43.6,28.73,South,172,9.6,9.6,80,0.00,,---,0.04,VWS V14.01,2013-02-12 21:40:00,
2013-02-12 13:45:00,49.6,43.7,28.70,SE,138,0.0,0.0,80,0.00,,---,0.04,VWS V14.01,2013-02-12 21:45:00,
2013-02-12 13:50:00,49.6,43.7,28.70,SSE,149,4.0,4.0,80,0.00,,---,0.04,VWS V14.01,2013-02-12 21:50:00,
2013-02-12 13:55:00,49.6,43.4,28.70,ESE,115,4.9,6.3,79,0.00,,---,0.04,VWS V14.01,2013-02-12 21:55:00,
2013-02-12 14:00:00,49.5,43.2,28.70,SE,133,5.4,5.4,79,0.00,,---,0.04,VWS V14.01,2013-02-12 22:00:00,
2013-02-12 14:05:00,49.5,43.2,28.70,ENE,62,0.0,0.0,79,0.00,,---,0.04,VWS V14.01,2013-02-12 22:05:00,
2013-02-12 14:10:00,49.5,43.2,28.70,East,87,2.7,2.7,79,0.00,,---,0.04,VWS V14.01,2013-02-12 22:10:00,
2013-02-12 14:15:00,49.8,43.2,28.70,South,169,0.0,0.0,78,0.00,,---,0.04,VWS V14.01,2013-02-12 22:15:00,
2013-02-12 14:20:00,49.6,42.7,28.70,South,182,2.7,2.7,77,0.00,,---,0.04,VWS V14.01,2013-02-12 22:20:00,
2013-02-12 14:25:00,50.0,43.8,28.70,SSE,151,0.0,0.0,79,0.00,,---,0.04,VWS V14.01,2013-02-12 22:25:00,
2013-02-12 14:30:00,50.0,43.8,28.70,SSE,150,2.7,2.7,79,0.00,,---,0.04,VWS V14.01,2013-02-12 22:30:00,
2013-02-12 14:35:00,51.1,43.8,28.70,SSE,155,5.8,5.8,76,0.00,,---,0.04,VWS V14.01,2013-02-12 22:35:00,
2013-02-12 14:40:00,50.9,43.3,28.70,SSE,147,3.1,3.1,75,0.00,,---,0.04,VWS V14.01,2013-02-12 22:40:00,
2013-02-12 14:45:00,50.7,42.8,28.70,SSE,165,2.7,2.7,74,0.00,,---,0.04,VWS V14.01,2013-02-12 22:45:00,
2013-02-12 14:50:00,50.5,42.9,28.70,SE,146,2.7,7.6,75,0.00,,---,0.04,VWS V14.01,2013-02-12 22:50:00,
2013-02-12 14:55:00,50.4,42.4,28.70,SE,145,2.2,2.2,74,0.00,,---,0.04,VWS V14.01,2013-02-12 22:55:00,
2013-02-12 15:00:00,49.6,42.0,28.70,SSE,167,2.7,2.7,75,0.00,,---,0.04,VWS V14.01,2013-02-12 23:00:00,
2013-02-12 15:05:00,49.6,42.0,28.70,SE,139,4.0,4.0,75,0.00,,---,0.04,VWS V14.01,2013-02-12 23:05:00,
2013-02-12 15:10:00,48.7,41.2,28.70,SSE,161,3.1,3.1,75,0.00,,---,0.04,VWS V14.01,2013-02-12 23:10:00,
2013-02-12 15:15:00,48.6,41.3,28.70,SE,130,3.6,3.6,76,0.00,,---,0.04,VWS V14.01,2013-02-12 23:15:00,
2013-02-12 15:20:00,48.2,41.3,28.70,SE,143,5.8,5.8,77,0.00,,---,0.04,VWS V14.01,2013-02-12 23:20:00,
2013-02-12 15:25:00,48.2,41.3,28.73,SSE,151,3.1,3.1,77,0.00,,---,0.04,VWS V14.01,2013-02-12 23:25:00,
2013-02-12 15:30:00,48.2,41.7,28.70,ESE,111,6.3,6.3,78,0.00,,---,0.04,VWS V14.01,2013-02-12 23:30:00,
2013-02-12 15:35:00,48.4,41.8,28.70,SSE,163,5.8,5.8,78,0.00,,---,0.04,VWS V14.01,2013-02-12 23:35:00,
2013-02-12 15:40:00,48.4,41.8,28.70,SSE,149,0.0,4.0,78,0.00,,---,0.04,VWS V14.01,2013-02-12 23:40:00,
2013-02-12 15:45:00,48.4,41.8,28.70,SE,146,0.0,0.0,78,0.00,,---,0.04,VWS V14.01,2013-02-12 23:45:00,
2013-02-12 15:50:00,48.4,41.8,28.70,SSE,154,0.0,0.0,78,0.00,,---,0.04,VWS V14.01,2013-02-12 23:50:00,
2013-02-12 15:55:00,48.6,41.7,28.70,SSE,154,0.0,0.0,77,0.00,,---,0.04,VWS V14.01,2013-02-12 23:55:00,
2013-02-12 16:00:00,48.6,41.7,28.70,SSE,158,6.3,6.3,77,0.00,,---,0.04,VWS V14.01,2013-02-13 00:00:00,
2013-02-12 16:05:00,48.6,41.7,28.70,SSE,153,0.0,0.0,77,0.00,,---,0.04,VWS V14.01,2013-02-13 00:05:00,
2013-02-12 16:10:00,48.6,41.7,28.70,SSW,199,0.0,3.1,77,0.00,,---,0.04,VWS V14.01,2013-02-13 00:10:00,
2013-02-12 16:15:00,47.8,41.3,28.70,South,185,3.6,3.6,78,0.00,,---,0.04,VWS V14.01,2013-02-13 00:15:00,
2013-02-12 16:20:00,47.8,41.3,28.70,SE,143,3.6,3.6,78,0.00,,---,0.04,VWS V14.01,2013-02-13 00:20:00,
2013-02-12 16:25:00,47.7,41.5,28.70,SSE,154,3.6,3.6,79,0.00,,---,0.04,VWS V14.01,2013-02-13 00:25:00,
2013-02-12 16:30:00,47.3,41.5,28.70,South,176,4.9,4.9,80,0.00,,---,0.04,VWS V14.01,2013-02-13 00:30:00,
2013-02-12 16:35:00,47.3,41.5,28.70,SE,137,0.0,3.1,80,0.00,,---,0.04,VWS V14.01,2013-02-13 00:35:00,
2013-02-12 16:40:00,46.9,41.4,28.70,SSE,160,3.6,3.6,81,0.00,,---,0.04,VWS V14.01,2013-02-13 00:40:00,
2013-02-12 16:45:00,46.9,41.4,28.70,South,184,3.1,3.1,81,0.00,,---,0.04,VWS V14.01,2013-02-13 00:45:00,
2013-02-12 16:50:00,46.9,41.4,28.70,SSE,161,0.0,0.0,81,0.00,,---,0.04,VWS V14.01,2013-02-13 00:50:00,
2013-02-12 16:55:00,46.9,41.4,28.70,South,185,0.0,2.7,81,0.00,,---,0.04,VWS V14.01,2013-02-13 00:55:00,
2013-02-12 17:00:00,46.6,41.4,28.70,SE,130,3.1,3.1,82,0.00,,---,0.04,VWS V14.01,2013-02-13 01:00:00,
2013-02-12 17:05:00,46.2,41.3,28.70,SE,139,2.2,2.2,83,0.00,,---,0.04,VWS V14.01,2013-02-13 01:05:00,
2013-02-12 17:10:00,46.2,41.3,28.70,SE,137,4.0,4.0,83,0.00,,---,0.04,VWS V14.01,2013-02-13 01:10:00,
2013-02-12 17:15:00,46.2,41.3,28.70,South,175,2.2,2.2,83,0.00,,---,0.04,VWS V14.01,2013-02-13 01:15:00,
2013-02-12 17:20:00,46.2,41.3,28.70,SSE,148,0.0,0.0,83,0.00,,---,0.04,VWS V14.01,2013-02-13 01:20:00,
2013-02-12 17:25:00,46.2,41.3,28.70,SE,137,0.0,3.1,83,0.00,,---,0.04,VWS V14.01,2013-02-13 01:25:00,
2013-02-12 17:30:00,45.9,41.3,28.70,SE,124,2.7,2.7,84,0.00,,---,0.04,VWS V14.01,2013-02-13 01:30:00,
2013-02-12 17:35:00,45.9,41.6,28.70,ESE,120,0.0,0.0,85,0.00,,---,0.04,VWS V14.01,2013-02-13 01:35:00,
2013-02-12 17:40:00,45.9,41.6,28.70,South,173,0.0,0.0,85,0.00,,---,0.04,VWS V14.01,2013-02-13 01:40:00,
2013-02-12 17:45:00,45.9,41.6,28.70,South,171,3.1,3.1,85,0.00,,---,0.04,VWS V14.01,2013-02-13 01:45:00,
2013-02-12 17:50:00,45.7,41.4,28.70,SSE,159,0.0,5.4,85,0.00,,---,0.04,VWS V14.01,2013-02-13 01:50:00,
2013-02-12 17:55:00,45.7,41.4,28.70,South,180,2.7,2.7,85,0.00,,---,0.04,VWS V14.01,2013-02-13 01:55:00,
2013-02-12 18:00:00,45.7,41.4,28.70,SSE,156,0.0,0.0,85,0.00,,---,0.04,VWS V14.01,2013-02-13 02:00:00,
2013-02-12 18:05:00,45.3,41.1,28.70,SSE,163,3.1,3.1,85,0.00,,---,0.04,VWS V14.01,2013-02-13 02:05:00,
2013-02-12 18:10:00,45.3,41.4,28.70,South,169,0.0,0.0,86,0.00,,---,0.04,VWS V14.01,2013-02-13 02:10:00,
2013-02-12 18:15:00,45.3,41.4,28.70,SW,224,2.7,2.7,86,0.00,,---,0.04,VWS V14.01,2013-02-13 02:15:00,
2013-02-12 18:20:00,45.3,41.4,28.70,SE,139,8.3,8.3,86,0.00,,---,0.04,VWS V14.01,2013-02-13 02:20:00,
2013-02-12 18:25:00,45.3,41.4,28.70,SSE,164,4.0,4.0,86,0.00,,---,0.04,VWS V14.01,2013-02-13 02:25:00,
2013-02-12 18:30:00,45.3,41.4,28.70,East,97,3.6,3.6,86,0.00,,---,0.04,VWS V14.01,2013-02-13 02:30:00,
2013-02-12 18:35:00,45.3,41.4,28.70,ESE,121,0.0,0.0,86,0.00,,---,0.04,VWS V14.01,2013-02-13 02:35:00,
2013-02-12 18:40:00,45.3,41.4,28.70,SSE,153,4.0,4.0,86,0.00,,---,0.04,VWS V14.01,2013-02-13 02:40:00,
2013-02-12 18:45:00,45.3,41.4,28.70,SSE,159,0.0,0.0,86,0.00,,---,0.04,VWS V14.01,2013-02-13 02:45:00,
2013-02-12 18:50:00,45.3,41.4,28.70,ESE,119,2.7,2.7,86,0.00,,---,0.04,VWS V14.01,2013-02-13 02:50:00,
2013-02-12 18:55:00,45.3,41.4,28.70,SSE,147,3.1,3.1,86,0.00,,---,0.04,VWS V14.01,2013-02-13 02:55:00,
2013-02-12 19:00:00,45.1,41.2,28.70,SSE,148,4.0,4.0,86,0.00,,---,0.04,VWS V14.01,2013-02-13 03:00:00,
2013-02-12 19:05:00,45.1,41.2,28.70,SSE,167,0.0,0.0,86,0.00,,---,0.04,VWS V14.01,2013-02-13 03:05:00,
2013-02-12 19:10:00,45.1,41.2,28.70,SSE,158,3.1,3.1,86,0.00,,---,0.04,VWS V14.01,2013-02-13 03:10:00,
2013-02-12 19:15:00,45.1,41.5,28.70,South,173,0.0,0.0,87,0.00,,---,0.04,VWS V14.01,2013-02-13 03:15:00,
2013-02-12 19:20:00,45.1,41.5,28.70,SE,144,2.7,2.7,87,0.00,,---,0.04,VWS V14.01,2013-02-13 03:20:00,
2013-02-12 19:25:00,45.1,41.5,28.70,SSE,167,4.0,4.0,87,0.00,,---,0.04,VWS V14.01,2013-02-13 03:25:00,
2013-02-12 19:30:00,45.1,41.8,28.70,East,94,3.6,3.6,88,0.00,,---,0.04,VWS V14.01,2013-02-13 03:30:00,
2013-02-12 19:35:00,45.1,41.8,28.70,SSE,163,0.0,0.0,88,0.00,,---,0.04,VWS V14.01,2013-02-13 03:35:00,
2013-02-12 19:40:00,45.1,41.8,28.70,ESE,120,2.7,2.7,88,0.00,,---,0.04,VWS V14.01,2013-02-13 03:40:00,
2013-02-12 19:45:00,45.0,41.6,28.70,SSE,154,4.0,4.0,88,0.00,,---,0.04,VWS V14.01,2013-02-13 03:45:00,
2013-02-12 19:50:00,45.1,41.8,28.70,SSE,151,0.0,0.0,88,0.00,,---,0.04,VWS V14.01,2013-02-13 03:50:00,
2013-02-12 19:55:00,45.1,41.8,28.70,South,171,3.6,3.6,88,0.00,,---,0.04,VWS V14.01,2013-02-13 03:55:00,
2013-02-12 20:00:00,45.3,42.3,28.70,SE,139,3.1,3.1,89,0.00,,---,0.04,VWS V14.01,2013-02-13 04:00:00,
2013-02-12 20:05:00,45.3,42.3,28.70,ESE,108,3.1,3.1,89,0.00,,---,0.04,VWS V14.01,2013-02-13 04:05:00,
2013-02-12 20:10:00,45.3,42.0,28.70,SE,126,2.7,2.7,88,0.00,,---,0.04,VWS V14.01,2013-02-13 04:10:00,
2013-02-12 20:15:00,45.3,42.0,28.70,SSE,160,2.2,2.2,88,0.00,,---,0.04,VWS V14.01,2013-02-13 04:15:00,
2013-02-12 20:20:00,45.3,42.3,28.70,SE,133,0.0,0.0,89,0.00,,---,0.04,VWS V14.01,2013-02-13 04:20:00,
2013-02-12 20:25:00,45.3,42.3,28.70,South,179,4.9,4.9,89,0.00,,---,0.04,VWS V14.01,2013-02-13 04:25:00,
2013-02-12 20:30:00,45.3,42.3,28.70,SSE,151,0.0,0.0,89,0.00,,---,0.04,VWS V14.01,2013-02-13 04:30:00,
2013-02-12 20:35:00,45.3,42.3,28.70,ESE,116,3.6,3.6,89,0.00,,---,0.04,VWS V14.01,2013-02-13 04:35:00,
2013-02-12 20:40:00,45.3,42.0,28.70,SSE,168,0.0,0.0,88,0.00,,---,0.04,VWS V14.01,2013-02-13 04:40:00,
2013-02-12 20:45:00,45.3,42.0,28.70,SSE,166,2.7,2.7,88,0.00,,---,0.04,VWS V14.01,2013-02-13 04:45:00,
2013-02-12 20:50:00,45.3,42.0,28.70,SSW,206,3.6,3.6,88,0.00,,---,0.04,VWS V14.01,2013-02-13 04:50:00,
2013-02-12 20:55:00,45.3,41.7,28.70,SSE,158,5.4,5.4,87,0.00,,---,0.04,VWS V14.01,2013-02-13 04:55:00,
2013-02-12 21:00:00,45.3,41.7,28.70,SSW,193,2.7,2.7,87,0.00,,---,0.04,VWS V14.01,2013-02-13 05:00:00,
2013-02-12 21:05:00,45.1,41.2,28.70,SE,137,2.7,2.7,86,0.00,,---,0.04,VWS V14.01,2013-02-13 05:05:00,
2013-02-12 21:10:00,45.1,41.2,28.70,ESE,106,2.2,2.2,86,0.00,,---,0.04,VWS V14.01,2013-02-13 05:10:00,
2013-02-12 21:15:00,45.1,41.2,28.70,East,90,3.6,3.6,86,0.00,,---,0.04,VWS V14.01,2013-02-13 05:15:00,
2013-02-12 21:20:00,45.1,40.9,28.67,NE,38,3.1,3.1,85,0.00,,---,0.04,VWS V14.01,2013-02-13 05:20:00,
2013-02-12 21:25:00,45.0,40.4,28.67,ENE,77,3.6,3.6,84,0.00,,---,0.04,VWS V14.01,2013-02-13 05:25:00,
2013-02-12 21:30:00,45.0,40.7,28.67,ENE,78,4.9,4.9,85,0.00,,---,0.04,VWS V14.01,2013-02-13 05:30:00,
2013-02-12 21:35:00,44.8,40.5,28.67,ENE,74,2.7,2.7,85,0.00,,---,0.04,VWS V14.01,2013-02-13 05:35:00,
2013-02-12 21:40:00,44.8,40.5,28.67,East,82,3.1,3.1,85,0.00,,---,0.04,VWS V14.01,2013-02-13 05:40:00,
2013-02-12 21:45:00,44.8,40.5,28.67,East,95,3.1,3.1,85,0.00,,---,0.04,VWS V14.01,2013-02-13 05:45:00,
2013-02-12 21:50:00,44.8,40.5,28.67,NNE,31,2.7,2.7,85,0.00,,---,0.04,VWS V14.01,2013-02-13 05:50:00,
2013-02-12 21:55:00,44.6,40.4,28.67,ENE,77,0.0,3.1,85,0.00,,---,0.04,VWS V14.01,2013-02-13 05:55:00,
2013-02-12 22:00:00,44.6,40.4,28.67,ESE,114,5.4,5.4,85,0.00,,---,0.04,VWS V14.01,2013-02-13 06:00:00,
2013-02-12 22:05:00,44.4,40.5,28.67,ESE,115,5.4,6.7,86,0.00,,---,0.04,VWS V14.01,2013-02-13 06:05:00,
2013-02-12 22:10:00,44.4,40.5,28.67,NNE,29,0.0,3.6,86,0.00,,---,0.04,VWS V14.01,2013-02-13 06:10:00,
2013-02-12 22:15:00,44.6,40.7,28.67,SSE,156,0.0,0.0,86,0.00,,---,0.04,VWS V14.01,2013-02-13 06:15:00,
2013-02-12 22:20:00,44.6,40.7,28.67,SW,216,5.4,5.4,86,0.00,,---,0.04,VWS V14.01,2013-02-13 06:20:00,
2013-02-12 22:25:00,44.6,40.7,28.67,SSW,212,0.0,0.0,86,0.00,,---,0.04,VWS V14.01,2013-02-13 06:25:00,
2013-02-12 22:30:00,44.8,40.9,28.70,SSE,168,0.0,0.0,86,0.00,,---,0.04,VWS V14.01,2013-02-13 06:30:00,
2013-02-12 22:35:00,44.8,40.9,28.70,South,172,3.6,3.6,86,0.00,,---,0.04,VWS V14.01,2013-02-13 06:35:00,
2013-02-12 22:40:00,44.8,40.5,28.70,South,172,2.2,2.2,85,0.00,,---,0.04,VWS V14.01,2013-02-13 06:40:00,
2013-02-12 22:45:00,44.8,40.9,28.70,SW,216,0.0,0.0,86,0.00,,---,0.04,VWS V14.01,2013-02-13 06:45:00,
2013-02-12 22:50:00,44.8,40.9,28.70,SSE,155,0.0,0.0,86,0.00,,---,0.04,VWS V14.01,2013-02-13 06:50:00,
2013-02-12 22:55:00,44.8,40.9,28.70,SW,225,0.0,0.0,86,0.00,,---,0.04,VWS V14.01,2013-02-13 06:55:00,
2013-02-12 23:00:00,44.8,40.9,28.70,SW,225,0.0,0.0,86,0.00,,---,0.04,VWS V14.01,2013-02-13 07:00:00,
2013-02-12 23:05:00,44.8,40.9,28.70,SW,225,0.0,0.0,86,0.00,,---,0.04,VWS V14.01,2013-02-13 07:05:00,
2013-02-12 23:10:00,44.8,40.9,28.70,SW,225,0.0,0.0,86,0.00,,---,0.04,VWS V14.01,2013-02-13 07:10:00,
2013-02-12 23:15:00,44.8,40.9,28.70,SW,225,0.0,0.0,86,0.00,,---,0.04,VWS V14.01,2013-02-13 07:15:00,
2013-02-12 23:20:00,44.8,40.9,28.70,SW,225,0.0,0.0,86,0.00,,---,0.04,VWS V14.01,2013-02-13 07:20:00,
2013-02-12 23:25:00,44.8,40.9,28.70,SW,233,0.0,0.0,86,0.00,,---,0.04,VWS V14.01,2013-02-13 07:25:00,
2013-02-12 23:30:00,44.6,40.7,28.67,SW,233,0.0,0.0,86,0.00,,---,0.04,VWS V14.01,2013-02-13 07:30:00,
2013-02-12 23:35:00,44.6,40.7,28.67,SW,233,0.0,0.0,86,0.00,,---,0.04,VWS V14.01,2013-02-13 07:35:00,
2013-02-12 23:40:00,44.2,40.3,28.67,SW,233,0.0,0.0,86,0.00,,---,0.04,VWS V14.01,2013-02-13 07:40:00,
2013-02-12 23:45:00,44.4,40.8,28.70,SW,224,0.0,0.0,87,0.00,,---,0.04,VWS V14.01,2013-02-13 07:45:00,
2013-02-12 23:50:00,44.6,41.0,28.70,SW,233,0.0,0.0,87,0.00,,---,0.04,VWS V14.01,2013-02-13 07:50:00,
2013-02-12 23:55:00,44.4,40.8,28.70,West,277,2.2,3.1,87,0.00,,---,0.04,VWS V14.01,2013-02-13 07:55:00,